INMARSAT 5-F1

Last updated on Sun Apr 12 2026 00:02:53 GMT+0000 (Coordinated Universal Time)

1 39476U 13073A 26101.39036983 .00000000 00000+0 00000+0 0 9992 2 39476 0.0161 186.0134 0000746 322.9479 253.7661 1.00273647 44902
UTC large
Height (km)
Speed (km/s)
/
Latitude / Longitude
Inclination (degrees)
Orbital Period (minutes)
Azimuth
Elevation
Range (km)
Doppler Factor

Next 0 passes for location: London (51.5072 / 0.1276)

Sorry there are no passes over London.
INMARSAT 5-F1